{"data":{"norad_id":53970,"intl_designator":"2022-125G","name":"STARLINK-4567","alt_names":[],"object_type":"PAYLOAD","status":"ACTIVE","operator":null,"country":"US","launch_date":"2022-10-05","launch_site_code":"AFWTR","launch_vehicle":null,"mission":null,"orbit_class":"UNKNOWN","rcs_meters":null,"size_class":null,"mass_kg":null,"dimensions":null,"purposes":["comms"],"wikipedia_slug":null,"has_3d_model":false,"image_url":null,"decayed_at":null,"tle_current":{"epoch":"2026-05-25T05:01:05.767392Z","epoch_age_seconds":50914,"freshness":"FRESH","line1":"1 53970U 22125G   26145.20909453 -.00000395  00000+0 -67551-5 0  9993","line2":"2 53970  53.2117 235.6524 0001494  77.4900 282.6260 15.08837622200951","mean_motion":15.08837622,"eccentricity":0.0001494,"inclination_deg":53.2117,"raan_deg":235.6524,"arg_perigee_deg":77.49,"mean_anomaly_deg":282.626,"bstar":-6.7551e-6,"rev_number":20095,"period_min":95.4377050919,"perigee_km":538.71712515228,"apogee_km":540.78418998436,"semimajor_km":6917.8876575683,"source":"CELESTRAK","updated_at":"2026-05-25T13:38:17.617983Z"}}}